Location: Gouy
(50.0008°N, 3.2556°E)
Time: 09:50:33
(UTC+00:00)

Lacrosse 5 rocket - Pass Details

Date: 23 May 2024
Orbit: 446 x 572 km, 57.0° (Epoch: 14 June)

Event Time Altitude Azimuth Distance (km) Brightness Sun altitude
Rises 01:19:09 0° 302° (WNW) 2,742 5.0 -16.3°
Reaches altitude 10° 01:21:26 10° 301° (WNW) 1,827 4.1 -16.1°
Maximum altitude 01:25:34 75° 217° (SW) 556 1.1 -15.8°
Drops below altitude 10° 01:29:30 10° 131° (SE) 1,743 3.7 -15.6°
Sets 01:31:38 0° 130° (SE) 2,603 4.6 -15.4°
